Salida, CO

6:56 PM MDT on June 21, 2018 (GMT -0600)
Salida

Weather History for KANK - June, 2018

Change the Weather History Date:

Thursday, June 14, 2018

  Actual Average (KGUC) Record (KGUC)
Temperature  
Mean Temperature 75 °F -  
Max Temperature 88 °F 70 °F 82 °F (2004)
Min Temperature 62 °F 36 °F 30 °F (2008)
Cooling Degree Days 10    
Growing Degree Days 25 (Base 50)    
Moisture  
Dew Point 29 °F    
Average Humidity 21    
Maximum Humidity 37    
Minimum Humidity 8    
Precipitation  
Precipitation 0.00 in - - ()
Sea Level Pressure  
Sea Level Pressure 30.23 in    
Wind  
Wind Speed 9 mph (WSW)    
Max Wind Speed 30 mph    
Max Gust Speed 41 mph    
Visibility 10 miles    
Events      
Averages and records for this station are not official NWS values.
T = Trace of Precipitation, MM = Missing Value Source: NWS Daily Summary

Daily Weather History Graph

Daily Weather History Graph

Search for Another Location

Airport or City:

Astronomy

Jun. 14, 2018 Rise Set
Actual Time 5:39 AM MDT 8:29 PM MDT
Civil Twilight 5:07 AM MDT 9:01 PM MDT
Nautical Twilight 4:27 AM MDT 9:41 PM MDT
Astronomical Twilight 3:42 AM MDT 10:27 PM MDT
Moon 6:38 AM MDT (6/14) 9:33 PM MDT (6/14)
Length of Visible Light 15h 53m
Length of Day
14h 50m
New Moon, 1% of the Moon is Illuminated
Jun 14
New Moon
Jun 20
First Quarter
Jun 27
Full
Jul 6
Last Quarter
Jul 12
New

Hourly Weather History & Observations

Time (MDT) Temp. Dew Point Humidity Pressure Visibility Wind Dir Wind Speed Gust Speed Precip Events Conditions
12:15 AM 68.0 °F 33.3 °F 28% 30.29 in 10.0 mi West 4.6 mph - N/A   Clear
12:35 AM 68.5 °F 32.9 °F 27% 30.27 in 10.0 mi SSW 3.5 mph - N/A   Clear
12:55 AM 68.0 °F 32.4 °F 27% 30.27 in 10.0 mi SE 6.9 mph - N/A   Clear
1:15 AM 66.7 °F 32.0 °F 27% 30.27 in 10.0 mi SW 9.2 mph - N/A   Clear
1:35 AM 65.3 °F 32.2 °F 29% 30.27 in 10.0 mi Calm Calm - N/A   Clear
1:55 AM 64.4 °F 32.0 °F 30% 30.27 in 10.0 mi Calm Calm - N/A   Clear
2:15 AM 66.2 °F 31.8 °F 28% 30.27 in 10.0 mi SSW 3.5 mph - N/A   Clear
2:35 AM 69.3 °F 31.1 °F 24% 30.27 in 10.0 mi South 4.6 mph - N/A   Clear
2:55 AM 69.1 °F 32.0 °F 25% 30.27 in 10.0 mi SSW 12.7 mph 18.4 mph N/A   Clear
3:15 AM 69.3 °F 32.0 °F 25% 30.26 in 10.0 mi South 11.5 mph 23.0 mph N/A   Clear
3:35 AM 66.9 °F 32.4 °F 28% 30.27 in 10.0 mi Calm Calm - N/A   Clear
3:55 AM 66.2 °F 32.4 °F 28% 30.27 in 10.0 mi SSE 3.5 mph - N/A   Clear
4:15 AM 67.6 °F 32.9 °F 28% 30.27 in 10.0 mi SSW 10.4 mph 17.3 mph N/A   Clear
4:35 AM 67.6 °F 34.2 °F 29% 30.28 in 10.0 mi SSW 10.4 mph 19.6 mph N/A   Clear
4:55 AM 67.6 °F 34.9 °F 30% 30.29 in 10.0 mi SW 8.1 mph 20.7 mph N/A   Clear
5:15 AM 67.3 °F 34.9 °F 30% 30.28 in 10.0 mi SSW 11.5 mph 16.1 mph N/A   Clear
5:35 AM 66.0 °F 35.1 °F 32% 30.29 in 10.0 mi Calm Calm - N/A   Clear
5:55 AM 62.8 °F 35.2 °F 36% 30.29 in 10.0 mi West 3.5 mph - N/A   Clear
6:15 AM 63.5 °F 36.5 °F 37% 30.29 in 10.0 mi WSW 3.5 mph - N/A   Clear
6:35 AM 65.1 °F 35.4 °F 33% 30.29 in 10.0 mi SW 8.1 mph - N/A   Clear
6:55 AM 66.2 °F 34.9 °F 31% 30.29 in 10.0 mi SW 5.8 mph - N/A   Clear
7:15 AM 65.5 °F 36.1 °F 34% 30.29 in 10.0 mi WNW 4.6 mph - N/A   Clear
7:35 AM 67.5 °F 35.2 °F 30% 30.29 in 10.0 mi West 3.5 mph - N/A   Clear
7:55 AM 69.4 °F 36.0 °F 29% 30.29 in 10.0 mi WSW 4.6 mph - N/A   Clear
8:15 AM 70.9 °F 34.7 °F 26% 30.29 in 10.0 mi South 8.1 mph - N/A   Clear
8:35 AM 72.7 °F 35.4 °F 26% 30.29 in 10.0 mi SW 4.6 mph - N/A   Clear
8:55 AM 74.1 °F 32.9 °F 22% 30.28 in 10.0 mi SSW 11.5 mph 16.1 mph N/A   Clear
9:15 AM 76.1 °F 32.4 °F 20% 30.27 in 10.0 mi SSW 11.5 mph - N/A   Clear
9:35 AM 77.2 °F 31.5 °F 19% 30.27 in 10.0 mi SSW 12.7 mph - N/A   Clear
9:55 AM 78.1 °F 30.7 °F 18% 30.25 in 10.0 mi SSW 11.5 mph 20.7 mph N/A   Clear
10:15 AM 79.3 °F 30.4 °F 17% 30.25 in 10.0 mi SSW 12.7 mph 18.4 mph N/A   Clear
10:35 AM 80.6 °F 30.6 °F 16% 30.24 in 10.0 mi SW 11.5 mph 20.7 mph N/A   Clear
10:55 AM 81.7 °F 24.1 °F 12% 30.24 in 10.0 mi West 20.7 mph 28.8 mph N/A   Clear
11:15 AM 82.4 °F 22.3 °F 11% 30.24 in 10.0 mi WSW 17.3 mph 28.8 mph N/A   Clear
11:35 AM 82.4 °F 20.8 °F 10% 30.24 in 10.0 mi West 20.7 mph 29.9 mph N/A   Clear
11:55 AM 82.8 °F 19.6 °F 10% 30.23 in 10.0 mi West 23.0 mph 31.1 mph N/A   Clear
12:15 PM 83.1 °F 16.9 °F 8% 30.23 in 10.0 mi WSW 23.0 mph 34.5 mph N/A   Clear
12:35 PM 85.1 °F 18.1 °F 8% 30.22 in 10.0 mi WNW 18.4 mph 28.8 mph N/A   Clear
12:55 PM 85.6 °F 19.0 °F 9% 30.21 in 10.0 mi West 16.1 mph 32.2 mph N/A   Clear
1:15 PM 86.5 °F 19.8 °F 9% 30.20 in 10.0 mi WNW 18.4 mph 29.9 mph N/A   Clear
1:35 PM 86.2 °F 18.1 °F 8% 30.19 in 10.0 mi WNW 13.8 mph 24.2 mph N/A   Clear
1:55 PM 87.6 °F 19.2 °F 8% 30.17 in 10.0 mi West 16.1 mph 36.8 mph N/A   Clear
2:15 PM 87.1 °F 17.6 °F 8% 30.17 in 10.0 mi WNW 13.8 mph - N/A   Clear
2:35 PM 88.5 °F 18.3 °F 8% 30.16 in 10.0 mi West 19.6 mph 27.6 mph N/A   Clear
2:55 PM 86.9 °F 19.0 °F 8% 30.17 in 10.0 mi West 19.6 mph 25.3 mph N/A   Clear
3:15 PM 83.8 °F 22.1 °F 10% 30.17 in 10.0 mi WSW 21.9 mph 31.1 mph N/A   Clear
3:35 PM 82.6 °F 25.2 °F 12% 30.19 in 10.0 mi WSW 29.9 mph 41.4 mph N/A   Clear
3:55 PM 78.6 °F 27.9 °F 16% 30.19 in 10.0 mi WSW 25.3 mph 38.0 mph N/A   Clear
4:15 PM 77.5 °F 28.0 °F 16% 30.17 in 10.0 mi West 19.6 mph 35.7 mph N/A   Clear
4:35 PM 77.7 °F 28.9 °F 17% 30.17 in 10.0 mi WSW 13.8 mph 21.9 mph N/A   Clear
4:55 PM 82.2 °F 26.2 °F 13% 30.18 in 10.0 mi West 18.4 mph 28.8 mph N/A   Clear
5:15 PM 84.2 °F 25.5 °F 12% 30.17 in 10.0 mi WSW 13.8 mph 24.2 mph N/A   Clear
5:35 PM 81.1 °F 25.3 °F 13% 30.17 in 10.0 mi West 16.1 mph 29.9 mph N/A   Clear
5:55 PM 79.2 °F 27.9 °F 15% 30.17 in 10.0 mi West 19.6 mph 32.2 mph N/A   Clear
6:15 PM 77.0 °F 30.6 °F 18% 30.18 in 10.0 mi West 17.3 mph 33.4 mph N/A   Clear
6:35 PM 76.5 °F 30.4 °F 18% 30.17 in 10.0 mi WSW 10.4 mph 21.9 mph N/A   Scattered Clouds
6:55 PM 76.1 °F 30.2 °F 19% 30.17 in 10.0 mi WSW 13.8 mph 21.9 mph N/A   Scattered Clouds
7:15 PM 77.2 °F 29.8 °F 18% 30.15 in 10.0 mi West 10.4 mph - N/A   Scattered Clouds
7:35 PM 77.2 °F 31.1 °F 19% 30.15 in 10.0 mi NNW 9.2 mph - N/A   Clear
7:55 PM 75.9 °F 31.8 °F 20% 30.15 in 10.0 mi West 9.2 mph - N/A   Clear
8:15 PM 74.1 °F 31.6 °F 21% 30.16 in 10.0 mi WSW 8.1 mph - N/A   Clear
8:35 PM 72.7 °F 31.6 °F 22% 30.17 in 10.0 mi WSW 12.7 mph - N/A   Clear
8:55 PM 71.2 °F 31.5 °F 23% 30.16 in 10.0 mi WSW 12.7 mph - N/A   Clear
9:15 PM 72.5 °F 30.6 °F 21% 30.17 in 10.0 mi West 13.8 mph - N/A   Clear
9:35 PM 72.1 °F 30.4 °F 21% 30.17 in 10.0 mi WSW 12.7 mph 18.4 mph N/A   Clear
9:55 PM 71.1 °F 30.2 °F 22% 30.17 in 10.0 mi West 12.7 mph - N/A   Clear
10:15 PM 69.3 °F 30.9 °F 24% 30.19 in 10.0 mi WSW 9.2 mph - N/A   Clear
10:35 PM 64.2 °F 32.0 °F 30% 30.19 in 10.0 mi SW 11.5 mph - N/A   Clear
10:55 PM 65.5 °F 31.1 °F 28% 30.19 in 10.0 mi WSW 12.7 mph - N/A   Clear
11:15 PM 65.3 °F 31.1 °F 28% 30.20 in 10.0 mi SW 10.4 mph - N/A   Clear
11:35 PM 65.7 °F 31.1 °F 27% 30.20 in 10.0 mi SW 12.7 mph - N/A   Clear
11:55 PM 65.8 °F 31.1 °F 27% 30.19 in 10.0 mi SW 10.4 mph - N/A   Clear